Track STARLINK-4199 now! 10-day predictions STARLINK-4199 is classified as:
1 52857U 22062AD 24325.46844002 -.00004257 00000-0 -24954-3 0 9990 2 52857 53.2147 352.9792 0001224 111.0170 249.0953 15.08836426134337